TimeCDT,TemperatureF,Dew PointF,Humidity,Sea Level PressureIn,VisibilityMPH,Wind Direction,Wind SpeedMPH,Gust SpeedMPH,PrecipitationIn,Events,Conditions,WindDirDegrees,DateUTC
12:53 AM,57.9,43.0,58,29.88,10.0,SW,4.6,-,N/A,,Mostly Cloudy,220,2013-04-07 05:53:00
1:53 AM,57.0,43.0,59,29.88,10.0,SW,4.6,-,N/A,,Clear,220,2013-04-07 06:53:00
2:53 AM,60.1,44.1,55,29.87,10.0,SW,5.8,-,N/A,,Partly Cloudy,220,2013-04-07 07:53:00
3:53 AM,57.0,44.1,62,29.88,10.0,SSW,4.6,-,N/A,,Clear,210,2013-04-07 08:53:00
4:53 AM,55.9,44.1,64,29.88,10.0,SSW,4.6,-,N/A,,Clear,210,2013-04-07 09:53:00
5:53 AM,55.0,44.1,67,29.90,10.0,SSW,3.5,-,N/A,,Partly Cloudy,210,2013-04-07 10:53:00
6:53 AM,55.0,44.1,67,29.91,10.0,SSW,4.6,-,N/A,,Partly Cloudy,200,2013-04-07 11:53:00
7:53 AM,57.9,45.0,62,29.93,10.0,SSW,8.1,-,N/A,,Scattered Clouds,210,2013-04-07 12:53:00
8:53 AM,61.0,46.0,58,29.93,10.0,SW,8.1,-,N/A,,Scattered Clouds,220,2013-04-07 13:53:00
9:53 AM,66.9,48.9,52,29.92,10.0,WSW,6.9,-,N/A,,Partly Cloudy,250,2013-04-07 14:53:00
10:53 AM,69.1,52.0,54,29.93,10.0,SSW,5.8,-,N/A,,Mostly Cloudy,210,2013-04-07 15:53:00
11:53 AM,70.0,51.1,51,29.92,10.0,South,8.1,-,N/A,,Mostly Cloudy,180,2013-04-07 16:53:00
12:53 PM,71.1,51.1,49,29.91,10.0,South,8.1,-,N/A,,Clear,180,2013-04-07 17:53:00
1:53 PM,73.0,51.1,46,29.89,10.0,South,8.1,-,N/A,,Partly Cloudy,170,2013-04-07 18:53:00
2:53 PM,73.9,50.0,43,29.87,10.0,South,10.4,17.3,N/A,,Scattered Clouds,190,2013-04-07 19:53:00
3:53 PM,75.0,50.0,41,29.84,10.0,SSE,9.2,20.7,N/A,,Scattered Clouds,160,2013-04-07 20:53:00
4:53 PM,73.9,48.9,41,29.83,10.0,SE,11.5,20.7,N/A,,Mostly Cloudy,140,2013-04-07 21:53:00
5:53 PM,73.0,50.0,44,29.82,10.0,SSE,11.5,19.6,N/A,,Partly Cloudy,150,2013-04-07 22:53:00
6:53 PM,70.0,52.0,53,29.82,10.0,SSE,12.7,21.9,N/A,,Partly Cloudy,160,2013-04-07 23:53:00
7:53 PM,66.9,54.0,63,29.84,10.0,South,13.8,-,N/A,,Scattered Clouds,180,2013-04-08 00:53:00
8:53 PM,64.9,54.0,68,29.85,10.0,South,11.5,20.7,N/A,,Mostly Cloudy,170,2013-04-08 01:53:00
9:53 PM,62.1,54.0,75,29.86,10.0,South,10.4,19.6,N/A,,Clear,170,2013-04-08 02:53:00
10:53 PM,61.0,54.0,78,29.86,10.0,SSE,12.7,-,N/A,,Scattered Clouds,160,2013-04-08 03:53:00
11:53 PM,61.0,54.0,78,29.86,10.0,SSE,6.9,-,N/A,,Overcast,160,2013-04-08 04:53:00